Location: Rounton
(54.4000°N, 1.3500°W)
Time: 13:24:12
(UTC+00:00)

Transit 2A - Pass Details

Date: 06 December 2021
Orbit: 591 x 967 km, 66.7° (Epoch: 17 January)

Event Time Altitude Azimuth Distance (km) Brightness Sun altitude
Rises 07:51:58 0° 318° (NW) 3,652 - -3.0°
Exits shadow 07:52:43 - 317° (NW) 3,372 8.7 -2.9°
Reaches altitude 10° 07:54:32 10° 316° (NW) 2,714 8.2 -2.7°
Maximum altitude 08:00:56 74° 234° (SW) 1,004 6.6 -1.9°
Drops below altitude 10° 08:07:08 10° 150° (SSE) 2,632 10.2 -1.2°
Sets 08:09:36 0° 149° (SSE) 3,534 11.1 -0.9°
